Find Starlink 34950

NORAD ID: 65193 Int'l Des: 2025-175 Owner: SPXS Country: US Constellation: starlink operational
LEOCIRCULARRETROGRADESSO

現在のビュー

3D地球を読み込み中...

Starlink 34950について

説明を読み込み中...

次回通過

Passes for default location (London). Set your location on the main map for personalized predictions.

高度履歴

Loading altitude history...

軌道要素

1 65193U 25175V 26159.40666841 -.00001202 00000-0 -79308-4 0 9990
2 65193 97.3903 31.3955 0002389 111.5926 248.5556 15.05655660 46262
Epoch: Jun 8, 2026 • Age: 14 hours

現在のステータス

高度 579.0 km
速度 7.57 km/s
衛星直下点 -78.64°S, 178.22°E
打ち上げ日 Aug 14, 2025
運用期間 0.8 years
タイプ internet

技術仕様

分類 Payload
質量 575.00 kg
乾燥質量 530.00 kg
総質量 575.00 kg
長さ 0.30 m
直径 4.10 m
スパン 29.00 m
形状 Box + pan
製造者 SPXS
バスタイプ Starlink V2MO
フェーズステータス In Orbit
所有者/国 SPXS/US

Most Searched